Lapse_Rate
5.9 6.4 6.9 6.7 6.6 6.7 6.9 7.1 7.2 7.3 7.4 7.3 7.3 7.2 7.2 7.1 6.9 6.7 6.5 6.5 6.6 6.6 6.5 6.3 6.2 6.1 6.1 5.8 6.3 6.4 6.2 6.2 6.4 6.3 6.3 6.3 6.4 6.3 6.0 5.9 6.3 6.3 6.3 6.0 5.1 4.6 5.0 5.8 5.9 5.9 6.2 6.0 6.0 5.8
5.9 6.1 6.9 6.9 6.6 6.7 6.8 6.9 7.2 7.2 7.3 7.3 7.4 7.3 7.3 7.2 7.0 6.9 6.7 6.6 6.6 6.7 6.5 6.3 6.1 6.1 5.9 5.7 6.2 6.3 6.0 6.5 6.2 6.3 6.3 6.3 6.4 6.3 6.5 6.0 6.1 5.8 6.5 6.3 6.1 6.6 6.2 5.7 5.8 6.0 6.0 5.8 5.7 5.8
6.1 6.4 7.0 7.1 6.8 6.7 6.8 6.8 7.0 7.2 7.3 7.3 7.3 7.4 7.3 7.2 7.2 7.2 6.9 6.8 6.6 6.6 6.5 6.3 6.3 6.2 5.9 5.8 5.9 6.1 6.2 6.1 6.1 6.5 6.4 6.1 6.1 6.3 6.2 6.3 6.5 6.0 6.2 6.0 5.7 6.0 5.9 5.6 5.7 5.8 5.9 5.9 5.8 5.8
6.1 6.3 6.7 6.9 6.8 6.8 6.8 7.0 6.9 7.1 7.2 7.3 7.3 7.3 7.2 7.2 7.3 7.3 7.1 7.0 6.9 6.7 6.6 6.6 6.6 6.5 6.3 6.2 6.2 6.2 6.1 6.0 6.0 6.2 6.1 6.0 6.1 6.0 6.1 6.2 6.0 6.8 6.8 6.9 6.5 6.4 6.1 6.0 6.1 6.0 6.0 6.0 5.9 5.9
6.1 6.2 6.4 6.7 6.9 7.0 6.9 7.0 7.1 7.1 7.1 7.2 7.2 7.2 7.2 7.2 7.3 7.2 7.0 7.0 6.9 6.8 6.7 6.9 6.8 6.7 6.6 6.5 6.4 6.4 6.3 6.2 6.0 5.9 5.9 6.0 5.8 5.9 5.6 5.5 5.8 7.2 6.8 6.5 6.4 6.4 6.5 6.6 6.3 6.1 6.0 5.9 5.9 5.9
6.3 6.4 6.4 6.5 6.7 6.8 7.0 7.0 7.2 7.2 7.2 7.2 7.2 7.2 7.2 7.1 7.1 7.0 7.0 6.9 7.0 6.9 6.7 6.7 6.8 6.9 6.7 6.6 6.5 6.3 6.4 6.5 6.3 6.1 6.0 5.6 6.0 5.8 5.3 5.4 6.6 6.9 7.0 6.7 6.2 6.3 6.1 5.9 6.0 5.9 6.0 5.9 5.7 5.3
6.3 6.3 6.2 6.3 6.8 6.9 7.0 6.9 7.0 7.1 7.1 7.2 7.2 7.2 7.2 7.1 7.1 6.9 6.9 7.1 7.1 6.9 6.6 6.3 6.4 6.6 6.6 6.6 6.7 6.7 6.8 6.6 6.2 5.8 5.7 6.1 6.2 5.4 5.2 5.5 7.1 6.8 6.6 5.9 6.0 5.8 5.7 5.8 5.8 5.8 5.7 5.5 5.5 5.3
6.0 6.3 6.3 6.4 6.4 6.6 6.5 6.7 6.7 6.8 6.9 7.0 7.0 7.1 7.1 7.0 6.8 6.7 6.8 6.8 6.8 6.6 6.4 5.9 6.0 6.4 6.8 6.8 6.8 6.9 6.7 6.6 6.3 6.1 5.6 5.9 5.9 5.7 5.1 6.9 6.8 6.8 6.5 6.2 6.4 6.0 5.8 5.9 5.8 5.5 5.4 5.3 5.2 5.0
5.0 5.2 5.9 6.1 6.2 6.3 6.4 6.5 6.5 6.5 6.7 6.7 6.7 6.7 6.6 6.5 6.5 6.7 6.7 6.6 6.5 6.3 6.0 5.9 6.1 6.2 6.5 6.8 6.9 6.8 6.8 6.7 6.4 6.1 6.2 5.9 5.5 5.6 7.2 6.7 6.6 6.6 6.5 6.1 6.1 5.7 5.7 5.7 5.6 5.4 5.3 5.0 4.9 4.8
5.4 5.0 5.1 5.4 5.9 6.1 6.3 6.3 6.3 6.4 6.4 6.3 6.4 6.3 6.4 6.5 6.6 6.6 6.5 6.4 6.3 6.2 5.8 6.0 6.1 6.3 6.6 6.6 6.8 6.9 6.7 6.6 6.3 6.2 6.4 6.2 6.1 6.8 7.1 6.8 6.5 6.2 5.7 5.7 5.7 5.9 5.8 5.6 5.2 5.1 4.9 4.9 4.9 5.0
5.7 5.7 5.7 5.5 5.8 5.8 5.4 5.9 6.3 6.3 6.3 6.3 6.2 6.2 6.5 6.6 6.3 6.3 6.2 6.1 6.1 6.0 6.0 6.1 6.3 6.2 6.4 6.5 6.7 6.7 6.4 6.3 6.1 5.9 5.9 5.7 5.7 6.2 6.2 6.3 6.3 5.6 5.5 5.7 6.0 5.8 5.5 5.2 5.0 4.8 4.8 5.1 5.3 5.4
5.7 5.6 5.6 5.8 5.9 6.1 6.2 6.1 6.0 6.0 6.0 6.1 6.1 6.1 6.0 6.1 6.2 6.2 5.8 6.0 6.0 5.7 5.6 5.8 6.4 6.7 6.5 6.4 6.2 6.2 6.2 6.4 6.5 5.4 5.3 5.4 5.4 5.5 5.5 5.7 5.7 5.3 5.7 5.8 5.7 5.3 5.2 5.0 4.9 5.0 5.2 5.4 5.6 5.7
5.7 5.7 5.5 5.6 5.7 5.8 6.0 6.1 6.1 6.1 6.0 5.8 6.0 6.3 6.3 6.2 6.4 6.1 6.0 5.5 5.5 5.3 5.2 5.3 5.6 5.7 6.0 5.9 5.9 6.0 5.9 6.0 5.7 5.3 5.3 5.2 5.1 5.2 5.3 5.2 5.5 5.4 5.5 5.3 5.0 5.1 5.2 5.3 5.3 5.4 5.4 5.6 5.7 5.8
5.9 5.6 5.3 5.4 5.7 5.6 5.6 5.8 5.9 6.1 5.9 5.7 5.9 6.1 6.1 6.0 5.9 5.8 5.4 5.3 5.4 5.3 5.3 5.6 5.6 5.6 5.5 5.7 5.9 5.9 5.8 5.5 5.2 4.8 4.8 5.3 5.2 4.9 4.7 4.7 4.8 4.9 4.8 5.0 5.3 5.3 5.5 5.4 5.5 5.6 5.8 5.8 5.9 5.9
6.4 6.2 5.7 5.4 5.3 5.5 5.7 5.8 6.0 6.2 6.2 5.9 6.1 5.9 5.6 5.8 5.9 5.9 5.8 5.6 5.7 5.6 5.5 5.4 5.3 5.6 5.7 6.2 5.8 5.6 5.3 5.3 5.3 5.3 5.2 5.0 4.6 4.5 4.6 4.7 4.8 4.9 5.1 5.3 5.5 5.6 5.7 5.6 5.7 5.9 6.0 6.1 6.0 6.0
7.0 6.8 6.7 6.4 6.0 5.9 5.9 6.0 6.1 6.1 6.2 6.2 6.1 6.1 5.8 5.9 5.8 5.9 5.8 5.8 5.6 5.4 5.4 5.3 5.6 5.6 5.6 5.5 5.3 5.3 5.4 5.4 5.1 5.0 4.9 4.8 4.8 4.9 5.0 4.9 5.1 5.3 5.5 5.5 5.4 5.4 5.5 5.8 6.0 6.3 6.4 6.3 6.3 6.5
6.9 6.8 6.7 6.6 6.6 6.5 6.4 6.2 6.2 6.2 6.3 6.3 6.5 6.4 6.3 6.1 5.8 5.6 5.3 5.2 5.3 5.3 5.2 5.4 5.4 5.5 5.3 5.3 5.4 5.4 5.4 5.1 5.1 4.9 4.8 4.9 5.0 5.3 5.5 5.6 5.6 5.5 5.5 5.6 5.8 5.9 6.1 6.4 6.5 6.6 6.6 6.6 6.6 6.7
7.0 6.9 6.7 6.4 6.4 6.4 6.5 6.4 6.4 6.4 6.4 6.7 6.7 6.5 6.4 6.3 6.2 6.1 5.7 5.6 5.5 5.5 5.6 5.5 5.4 5.4 5.5 5.6 5.6 5.6 5.2 5.3 5.4 5.3 5.5 5.6 5.7 5.6 5.5 5.5 5.7 5.7 5.8 6.1 6.3 6.5 6.5 6.5 6.7 6.8 6.9 6.9 7.0 7.0
6.9 6.8 6.7 6.7 6.5 6.5 6.5 6.4 6.4 6.3 6.4 6.5 6.7 6.7 6.6 6.5 6.4 6.3 6.1 5.9 5.8 5.7 5.7 5.8 5.9 5.8 6.0 5.9 5.7 5.5 5.5 5.5 5.5 5.6 5.7 5.8 5.8 5.7 5.8 5.9 6.0 6.2 6.3 6.3 6.4 6.5 6.7 6.8 6.8 6.7 6.7 6.9 6.9 7.0
6.4 6.4 6.5 6.5 6.6 6.4 6.3 6.3 6.5 6.5 6.7 6.8 6.6 6.7 6.8 6.7 6.5 6.4 6.3 6.3 6.3 6.4 6.6 6.6 6.5 6.4 6.3 6.3 6.3 6.3 6.3 6.2 6.2 6.1 6.0 6.1 6.2 6.3 6.5 6.6 6.7 6.7 6.8 6.9 6.9 6.9 6.8 6.8 6.9 6.8 6.8 6.8 6.9 6.9
6.1 6.1 6.1 6.3 6.2 6.3 6.3 6.3 6.5 6.5 6.6 6.8 7.0 7.0 6.9 6.9 6.9 7.0 7.0 7.1 7.1 7.4 7.4 7.1 7.0 6.9 6.9 6.8 6.8 6.8 6.9 6.9 6.8 6.9 6.9 6.8 6.8 6.8 6.8 6.8 6.8 6.9 6.9 7.0 6.8 6.8 6.7 6.6 6.6 6.6 6.5 6.3 6.4 6.7
6.0 5.9 6.0 6.1 6.2 6.6 6.4 6.5 6.5 6.7 6.8 7.1 7.1 7.2 7.1 7.1 7.2 7.3 7.3 7.4 7.6 7.7 7.6 7.4 7.4 7.4 7.4 7.4 7.3 7.2 7.2 7.1 7.0 7.0 7.1 7.1 7.1 7.1 7.2 7.2 7.2 7.1 7.1 7.0 7.0 6.8 6.7 6.6 6.6 6.5 6.4 6.3 6.4 6.4
6.1 6.0 6.0 6.0 6.3 6.6 6.7 6.8 6.7 7.0 7.2 7.3 7.4 7.4 7.6 7.6 7.6 7.6 7.6 7.7 7.7 7.6 7.5 7.4 7.5 7.3 7.3 7.3 7.2 7.2 7.3 7.4 7.3 7.2 7.2 7.1 7.1 7.1 7.0 7.0 6.9 6.9 6.9 6.9 7.0 7.0 6.8 6.7 6.7 6.3 6.0 6.0 6.0 6.0
6.3 6.3 6.4 6.5 6.8 6.9 7.0 7.1 7.1 7.4 7.5 7.7 7.8 7.7 7.8 7.8 7.8 7.7 7.6 7.7 7.8 7.7 7.6 7.5 7.4 7.3 7.1 7.2 7.3 7.3 7.4 7.3 7.1 7.0 7.0 7.1 7.2 7.2 7.2 7.2 7.2 7.1 7.1 7.0 6.8 6.7 6.7 6.6 6.5 6.1 5.8 5.8 5.8 5.7
7.1 7.3 7.4 7.4 7.2 7.1 7.2 7.3 7.6 7.8 7.6 7.8 7.8 7.9 7.9 7.8 7.7 7.8 7.7 7.6 7.7 7.7 7.4 7.3 7.2 7.1 7.1 7.2 7.3 7.2 7.0 7.0 7.0 7.0 7.0 7.0 7.1 7.2 7.2 7.3 7.1 7.0 6.9 6.9 6.9 6.7 6.5 6.2 5.9 6.0 6.0 5.8 5.8 5.8
8.0 8.0 8.0 7.9 7.7 7.6 7.5 7.5 7.7 7.8 7.7 7.6 7.6 7.6 7.6 7.5 7.3 7.2 7.3 7.7 7.7 7.4 7.2 7.1 7.1 7.2 7.2 7.1 7.0 7.0 6.9 6.9 6.8 6.9 7.1 7.2 7.3 7.2 7.0 6.8 6.8 6.8 6.6 6.5 6.4 6.3 6.1 6.0 5.8 5.9 5.9 5.9 5.9 6.0
7.6 7.7 7.7 7.9 7.8 7.7 7.5 7.5 7.6 7.7 7.6 7.4 7.4 7.4 7.3 7.3 7.2 7.4 7.6 7.4 7.2 7.1 7.1 7.1 7.2 7.2 7.1 7.1 7.0 7.0 7.0 6.9 7.1 7.2 7.1 7.0 6.8 6.6 6.5 6.5 6.3 6.2 6.0 5.9 5.9 6.0 5.9 5.8 5.8 5.9 5.8 5.9 6.0 6.1
7.4 7.5 7.5 7.4 7.3 7.3 7.3 7.2 7.3 7.4 7.4 7.3 7.4 7.3 7.2 7.3 7.5 7.4 7.2 7.1 7.1 7.1 7.1 7.0 6.9 6.8 6.8 6.7 6.8 6.9 7.0 7.0 6.8 6.6 6.3 6.2 6.2 6.1 5.9 5.6 5.4 5.3 5.1 5.0 4.9 5.0 5.1 5.1 5.2 5.5 5.7 5.8 6.1 6.4
7.3 7.2 7.2 7.2 7.1 7.0 7.0 7.1 7.2 7.2 7.3 7.2 7.4 7.5 7.5 7.4 7.3 7.2 7.1 7.0 6.9 6.9 6.8 6.7 6.6 6.6 6.7 6.7 6.8 6.8 6.7 6.6 6.3 6.2 6.2 6.2 6.2 6.0 5.8 5.7 5.5 5.3 5.1 5.0 4.8 4.7 4.7 4.9 5.2 5.3 5.5 5.8 6.1 6.3
7.4 7.2 7.1 7.0 7.0 7.2 7.3 7.4 7.4 7.4 7.4 7.3 7.2 7.1 7.1 7.1 7.1 7.0 7.0 6.9 6.9 6.9 6.9 6.8 6.8 6.8 6.8 6.6 6.4 6.2 6.2 6.1 6.1 6.1 6.0 5.8 5.7 5.5 5.4 5.3 5.2 5.1 5.0 4.9 4.9 4.9 4.8 4.8 5.0 5.1 5.3 5.7 6.0 6.3
7.5 7.4 7.4 7.4 7.4 7.3 7.3 7.2 7.1 7.1 7.0 7.0 7.0 7.0 7.1 7.0 7.0 6.9 7.1 7.1 7.0 6.8 6.8 6.7 6.6 6.5 6.4 6.3 6.1 6.0 5.9 5.9 5.7 5.6 5.6 5.5 5.3 5.3 5.2 5.2 5.2 5.2 5.1 5.0 4.9 4.6 4.5 4.6 4.9 5.3 5.6 6.0 6.3 6.6
7.4 7.4 7.4 7.3 7.3 7.2 7.2 7.2 7.1 7.1 7.1 7.0 7.0 6.9 6.9 6.9 7.0 7.1 7.1 6.9 6.8 6.6 6.5 6.5 6.4 6.2 5.9 5.8 5.7 5.7 5.6 5.5 5.5 5.5 5.5 5.5 5.4 5.5 5.5 5.5 5.4 5.2 5.0 4.9 4.9 4.5 4.2 4.3 4.5 5.1 5.5 5.9 6.3 6.8
7.3 7.2 7.1 7.1 7.0 7.0 7.0 6.9 6.9 6.9 7.0 7.1 7.2 7.2 7.2 7.1 7.0 7.1 6.9 6.8 6.6 6.4 6.2 6.0 5.8 5.7 5.6 5.6 5.6 5.5 5.5 5.6 5.6 5.6 5.6 5.6 5.6 5.6 5.5 5.4 5.3 5.3 5.3 5.1 4.6 4.1 4.0 4.3 4.5 5.1 5.5 5.9 6.3 6.8
Wind_Speed
26 24 23 22 20 16 14 13 11 8 8 10 12 15 17 18 19 4 1 3 3 3 3 7 7 5 3 5 5 4 4 4 3 3 3 3 2 4 2 7 6 7 6 3 2 3 7 4 3 6 5 3 7 4
25 23 23 21 20 17 15 13 11 9 8 9 11 14 17 19 20 5 3 2 3 5 3 3 4 6 5 2 5 3 6 4 4 4 1 2 0 1 1 3 4 2 7 6 8 6 6 4 4 4 5 6 4 4
24 24 23 21 20 18 16 14 12 9 8 8 10 13 17 20 22 8 3 3 4 3 3 4 4 5 8 5 1 4 2 5 4 3 3 3 3 3 4 5 1 3 6 3 4 6 6 7 7 6 6 5 4 4
22 23 22 21 19 17 16 13 11 9 7 8 9 12 16 20 22 10 3 3 4 4 4 3 2 4 5 6 6 3 5 6 6 4 3 3 3 4 4 4 4 5 3 1 2 1 7 6 6 7 7 6 5 4
21 20 21 20 18 17 15 12 10 8 7 8 9 11 14 17 18 7 3 4 4 4 4 2 2 3 4 5 5 6 7 5 3 3 2 3 2 2 1 2 2 3 5 3 5 6 4 5 6 6 6 6 5 6
28 24 22 18 16 15 14 11 10 8 8 7 8 10 12 15 13 2 3 4 10 3 4 1 1 4 4 3 1 5 3 3 3 4 3 3 3 4 3 3 5 5 4 4 4 6 9 9 7 6 5 7 7 5
24 22 23 24 18 13 12 11 9 8 7 6 7 8 11 13 5 3 3 2 11 2 3 2 1 5 4 3 4 3 5 2 2 2 1 2 3 3 3 5 6 7 4 9 12 10 5 5 4 5 6 6 7 7
20 18 19 22 19 16 12 8 9 9 7 7 8 8 9 9 9 3 3 7 8 4 3 3 2 3 4 2 2 3 2 3 3 2 2 2 3 2 3 7 8 8 5 8 9 4 5 6 5 6 6 7 7 6
20 19 15 18 20 15 10 8 8 11 11 9 9 6 4 4 2 2 16 13 3 3 4 2 4 3 2 2 2 3 2 1 1 1 1 2 2 5 6 5 5 7 7 10 7 9 8 5 7 7 7 7 6 4
19 18 18 18 15 10 7 8 11 13 16 12 5 3 1 2 11 9 3 3 4 3 2 2 2 2 3 1 1 2 1 2 1 3 2 2 3 5 8 5 4 6 9 11 9 6 6 7 7 6 6 5 4 1
18 17 17 18 17 17 14 13 15 17 6 2 2 1 2 7 2 3 2 1 1 1 1 0 2 4 1 3 2 1 2 1 2 3 3 3 3 4 2 5 7 9 13 13 11 11 9 7 6 5 4 3 1 3
17 16 17 20 22 19 15 12 9 4 2 4 4 3 2 3 2 3 3 1 2 2 2 1 1 2 1 1 3 1 3 2 5 4 2 3 3 5 10 10 9 12 14 11 10 10 8 8 6 4 2 3 3 4
15 15 13 16 20 21 19 20 19 16 5 3 4 4 2 3 2 4 6 1 1 1 1 0 1 1 2 2 2 2 5 4 1 2 3 3 2 4 8 11 11 11 12 10 9 7 6 3 3 0 4 5 5 5
12 12 11 10 13 14 14 13 9 4 4 3 3 3 1 2 2 2 1 1 0 2 2 2 2 1 0 1 2 3 1 1 2 2 3 2 5 6 4 8 9 6 7 7 4 3 3 3 4 4 5 4 4 5
10 8 9 12 8 12 11 11 12 2 3 3 2 2 2 1 1 1 1 2 2 1 2 2 2 1 1 1 1 3 1 1 1 1 2 2 3 7 8 8 7 6 4 3 1 2 4 5 5 6 5 5 5 5
7 4 5 5 8 9 9 8 5 3 3 3 3 3 2 1 1 1 2 2 1 1 1 2 1 1 2 1 1 0 2 1 2 1 2 2 3 5 6 5 5 4 2 2 3 3 4 4 4 6 5 5 6 6
6 2 4 5 6 10 12 3 3 4 3 2 2 2 2 3 3 2 2 1 0 1 1 0 2 1 1 1 1 2 2 2 3 1 1 3 4 4 4 4 4 3 3 4 3 4 4 5 4 3 7 8 6 7
4 3 4 4 5 5 3 3 2 3 3 2 2 1 2 2 2 1 2 2 2 1 1 2 2 1 2 2 2 1 2 1 1 3 3 3 3 3 2 1 3 3 4 5 5 5 4 4 6 6 7 8 6 6
6 4 3 6 8 3 3 4 2 2 2 2 2 2 2 2 2 1 0 1 0 1 2 2 2 0 1 1 2 1 1 1 1 1 2 2 2 4 5 3 3 4 5 5 4 3 4 6 5 5 6 4 5 5
18 15 10 8 8 2 2 1 1 2 2 2 2 2 2 2 1 1 1 1 1 1 2 1 2 2 2 1 1 2 2 1 2 2 3 3 2 2 2 3 3 4 4 5 4 4 3 4 3 4 4 2 2 4
6 3 10 6 3 3 1 1 2 1 1 2 2 2 2 1 1 1 0 1 1 1 1 3 2 2 4 3 2 2 2 2 0 3 2 1 3 1 3 4 5 3 2 3 3 5 5 5 6 4 3 4 7 5
1 4 2 3 1 2 0 1 1 1 2 2 2 2 2 2 2 2 1 2 2 3 2 2 1 2 2 1 1 2 2 3 1 1 3 1 2 3 3 3 2 3 4 4 4 7 7 5 3 2 4 8 5 4
6 2 2 1 2 2 2 2 2 3 3 2 1 2 2 2 2 2 2 2 3 1 2 3 3 3 3 2 3 7 7 4 3 5 6 5 3 4 6 6 5 5 7 7 4 6 7 6 5 4 3 6 5 4
2 1 2 2 2 2 1 2 2 2 2 3 3 2 2 2 2 0 2 2 2 2 5 8 4 2 3 8 7 7 7 5 5 6 6 6 6 7 7 6 6 5 7 7 7 8 9 10 14 5 4 4 3 3
2 2 2 3 2 3 3 2 2 3 3 3 2 1 1 2 2 2 3 2 2 6 6 6 6 7 5 3 4 6 8 7 5 4 4 6 5 5 5 4 6 7 9 9 10 10 10 9 10 8 6 3 4 6
3 2 2 4 3 3 4 4 5 4 3 2 2 3 1 2 1 3 2 1 2 3 3 4 4 4 6 6 5 6 6 6 5 3 3 5 5 5 6 7 7 7 9 8 9 11 11 10 11 11 10 8 7 5
3 3 2 1 1 2 2 1 2 3 2 3 3 3 2 3 4 2 2 3 2 2 3 4 5 4 4 4 3 4 5 5 3 4 4 3 6 7 6 7 9 7 10 10 10 11 12 12 12 10 9 8 7 4
0 1 3 2 1 0 2 2 2 3 3 2 4 4 5 3 2 2 3 3 3 3 4 5 4 3 3 3 4 3 3 3 4 5 4 4 5 4 8 5 4 11 8 9 10 11 11 12 13 11 11 8 5 4
1 1 2 2 1 1 1 1 2 1 3 2 3 2 3 3 3 2 2 3 2 3 3 3 3 3 4 3 4 3 3 3 7 8 6 4 6 5 6 7 8 8 8 10 14 14 16 14 13 12 15 2 5 6
1 2 1 1 1 1 2 3 2 3 3 2 3 3 3 2 2 3 3 3 3 2 2 2 2 4 3 3 3 4 2 2 3 3 1 3 5 5 5 8 9 9 9 8 10 13 16 13 11 9 4 4 5 6
2 2 1 2 2 2 2 2 1 1 2 2 3 3 3 3 2 3 3 3 3 4 4 4 3 3 4 3 2 3 3 3 4 4 2 3 3 3 3 5 7 8 8 7 9 10 11 11 8 6 7 7 8 7
2 3 1 1 2 2 1 0 1 1 2 2 2 3 3 3 2 1 3 3 3 3 3 3 3 3 3 2 2 2 6 2 3 3 5 2 2 2 8 10 10 8 7 4 8 9 11 6 6 7 6 8 8 8
1 1 1 1 0 0 1 2 2 0 2 2 3 2 2 3 3 1 1 2 3 3 2 1 2 3 2 2 2 3 5 9 14 13 14 9 10 12 12 11 9 5 5 6 8 9 8 8 6 8 8 7 7 7
Wind_Direction
141 144 147 152 153 151 148 150 142 121 90 65 47 34 28 25 19 37 220 10 96 92 2 23 13 48 69 96 135 196 60 338 51 88 134 218 158 241 145 170 173 164 151 194 189 230 273 224 74 157 191 95 125 100
140 145 149 151 153 154 149 146 137 121 94 69 49 34 28 24 16 12 65 333 29 84 158 71 94 49 64 64 134 147 172 153 165 101 140 131 9 3 135 230 179 166 182 179 179 214 213 198 147 111 119 130 140 162
142 146 146 148 151 151 149 144 137 123 98 70 50 33 24 20 16 31 95 358 48 77 1 48 31 16 19 7 45 120 319 167 108 139 139 154 200 141 168 241 270 277 171 194 111 248 153 118 103 107 114 131 170 168
140 141 142 144 148 149 150 145 136 122 102 72 48 29 22 18 14 35 83 333 78 83 108 291 308 47 328 355 39 68 126 63 94 76 114 149 181 180 210 226 162 210 350 234 267 311 98 155 144 138 149 142 171 193
88 123 132 137 142 148 149 146 136 125 100 70 48 32 20 14 7 32 72 40 49 118 159 258 49 15 12 358 65 71 93 98 94 80 107 210 229 79 300 70 258 199 197 167 232 227 172 156 153 140 142 169 142 96
60 71 93 119 129 134 137 139 137 127 109 87 59 37 21 8 357 51 48 5 12 37 93 69 282 21 4 320 130 70 31 66 119 132 201 254 269 121 169 221 264 242 221 199 156 89 99 129 147 181 166 123 108 103
65 64 73 78 87 115 126 130 131 123 111 100 77 51 32 19 53 74 147 266 335 26 84 42 324 346 326 338 34 33 33 42 89 151 152 171 288 109 143 217 239 242 262 121 130 115 102 159 175 152 122 110 100 79
68 64 71 76 73 74 91 131 142 123 118 107 91 69 44 71 106 59 349 355 342 82 67 113 222 9 358 7 56 354 26 13 10 112 19 171 345 52 251 240 236 235 191 131 155 115 136 137 131 131 103 83 70 65
62 62 71 78 72 57 66 96 139 143 126 118 101 53 41 30 46 356 329 319 360 109 129 120 152 213 38 48 67 10 59 58 326 144 228 98 208 225 234 237 239 239 163 147 132 122 128 139 104 90 79 67 78 55
61 63 59 52 51 38 55 111 128 143 137 124 37 56 25 304 321 322 23 27 18 2 54 157 164 172 100 52 360 90 21 212 205 243 111 198 251 286 270 275 335 140 137 137 124 103 93 86 85 74 72 91 99 68
61 61 57 54 59 60 87 105 119 122 91 61 81 97 261 311 37 31 58 156 194 294 179 224 163 145 278 124 175 179 190 189 236 234 177 237 255 248 219 121 86 89 80 69 76 85 88 94 88 85 83 102 29 303
57 55 60 65 62 62 79 84 95 67 41 95 106 91 46 31 44 131 181 22 193 205 15 126 49 88 7 22 111 219 173 162 234 136 150 253 282 81 92 93 74 93 104 93 82 81 70 73 75 76 31 301 276 272
56 56 57 74 70 63 66 73 86 112 114 59 51 58 45 351 116 196 181 171 122 125 211 322 60 108 30 54 90 149 188 216 64 155 227 239 146 98 111 92 78 78 77 67 58 57 54 53 51 194 263 265 258 275
51 57 58 60 70 62 52 49 50 148 72 64 67 88 352 129 56 48 65 54 273 109 106 86 59 68 25 97 129 173 179 91 228 176 234 24 82 118 93 110 104 91 92 92 72 33 323 249 247 252 233 243 236 267
42 52 66 43 66 51 42 29 14 355 97 84 75 85 77 110 60 103 151 122 351 79 82 63 65 64 34 99 23 108 117 239 322 65 40 328 41 98 95 101 103 97 83 65 7 303 259 257 241 263 264 255 251 253
23 58 43 76 56 37 22 21 24 36 34 80 76 99 128 108 88 44 33 66 9 6 51 68 108 118 51 11 235 174 171 112 62 245 207 137 87 87 106 106 109 113 97 289 273 258 264 264 260 275 282 273 267 250
9 61 124 103 65 38 32 49 18 51 111 67 82 48 81 72 107 96 114 104 231 74 72 142 91 123 167 69 41 357 50 155 197 233 161 142 134 125 117 74 33 338 300 294 294 302 291 285 291 299 294 286 269 261
35 122 134 109 10 23 26 22 61 59 75 95 134 100 62 50 104 61 30 358 32 23 16 166 138 117 167 161 207 190 166 232 122 153 157 134 105 93 80 356 325 326 317 307 289 292 284 292 291 279 270 271 272 272
31 84 130 33 20 74 35 351 20 89 60 107 69 64 73 92 46 60 126 304 230 186 103 39 68 195 175 177 153 193 49 135 194 238 162 194 210 244 264 261 268 274 280 276 282 273 266 267 257 270 273 278 275 273
78 56 60 62 25 62 44 318 39 89 143 179 119 84 70 64 87 341 328 353 37 66 51 108 217 220 143 265 130 150 178 142 98 34 334 338 342 9 251 261 258 275 273 277 277 261 291 296 280 271 276 268 289 287
50 37 34 43 19 3 343 318 360 85 110 95 117 106 99 179 142 184 124 328 47 201 256 208 179 216 145 145 122 92 34 64 76 151 199 305 296 315 296 295 288 285 266 272 265 276 261 253 270 276 283 292 287 241
82 73 66 23 75 313 132 288 178 243 64 168 113 115 133 155 161 179 110 189 234 237 209 168 146 68 91 127 131 151 160 88 28 305 307 321 325 315 307 276 334 290 281 272 270 280 281 265 259 249 304 298 279 268
97 63 77 139 165 222 231 19 123 169 129 190 63 99 146 141 117 48 211 229 234 277 69 58 77 80 102 124 76 37 24 30 28 38 24 6 348 352 1 352 349 340 331 322 304 308 308 298 268 254 261 277 264 270
69 146 209 196 215 130 239 195 153 137 116 182 164 163 106 114 126 139 235 183 29 358 37 8 351 11 40 60 68 47 28 24 30 25 14 8 3 352 345 331 332 333 354 345 350 344 331 318 297 248 271 266 250 266
188 205 223 187 172 166 158 189 184 120 166 200 114 101 161 114 157 191 210 105 51 49 23 14 11 46 64 59 63 57 39 30 20 3 1 13 334 325 333 341 2 48 10 354 347 338 329 330 342 322 282 253 269 279
226 168 238 163 187 203 170 167 188 162 138 166 124 113 142 137 120 237 91 88 72 54 39 14 15 29 48 48 38 25 21 25 16 6 332 354 36 37 14 7 359 353 357 343 339 333 328 329 323 333 340 322 302 317
213 191 208 243 295 79 82 51 22 90 132 146 154 164 137 159 221 109 110 18 71 36 50 56 43 34 38 37 21 47 44 20 1 321 308 79 70 49 29 5 352 350 337 334 336 331 326 326 331 324 320 324 332 1
60 179 166 212 179 309 126 116 176 178 181 176 122 179 179 178 109 56 60 53 31 7 81 67 42 32 45 14 57 62 35 6 349 345 355 70 63 49 15 349 348 345 332 329 331 327 326 324 316 324 317 308 308 61
40 21 78 37 327 280 226 160 183 44 346 123 152 102 91 58 10 56 55 33 13 54 56 60 7 25 26 28 35 61 56 46 39 27 17 320 339 339 354 349 345 339 334 328 329 328 321 321 320 320 302 355 60 66
37 344 49 108 133 89 58 346 50 6 12 70 108 106 95 85 33 5 47 42 48 44 44 57 55 59 38 37 0 3 45 68 81 95 347 314 320 324 340 338 336 333 325 332 331 323 321 324 321 327 10 36 45 75
318 291 54 50 67 48 37 7 13 54 42 72 46 70 96 115 69 19 30 349 82 49 45 33 41 43 43 6 10 12 325 335 27 31 351 277 296 319 313 330 324 320 321 332 326 321 320 319 334 358 36 41 48 63
38 10 358 97 101 116 112 254 173 216 161 175 112 111 141 134 97 59 328 2 65 65 40 47 41 341 324 304 38 2 25 349 350 323 310 320 335 317 314 307 312 311 312 316 321 321 314 344 10 18 28 40 43 46
91 75 10 57 324 189 348 26 278 30 36 67 49 73 72 68 104 152 285 80 118 123 91 38 325 309 357 38 35 37 6 343 336 342 343 3 351 336 330 321 323 336 349 326 325 329 2 5 36 32 31 36 36 33